Previsão horária em Abak

Hoje, 18 Abril, Domingo

Tempo Temperatura Precipitação Vento Pressão Humidade
00:00 +27°C° 0.6 mm 1 m/s 753 mmHg 87%
01:00 +27°C° 0.6 mm 1 m/s 752 mmHg 87%
02:00 +27°C° 0.1 mm 1 m/s 752 mmHg 88%
03:00 +25°C° 0.1 mm 0 m/s 752 mmHg 89%
04:00 +25°C° 0.1 mm 0 m/s 752 mmHg 90%
05:00 +27°C° 0.7 mm 1 m/s 753 mmHg 91%
06:00 +26°C° 0.7 mm 2 m/s 753 mmHg 92%
07:00 +26°C° 0.7 mm 2 m/s 753 mmHg 93%
08:00 +27°C° 0 mm 2 m/s 754 mmHg 87%
09:00 +28°C° 0 mm 1 m/s 754 mmHg 81%
10:00 +29°C° 0 mm 1 m/s 754 mmHg 74%
11:00 +30°C° 0 mm 1 m/s 753 mmHg 72%
12:00 +30°C° 0 mm 1 m/s 753 mmHg 70%
13:00 +31°C° 0 mm 1 m/s 753 mmHg 67%
14:00 +30°C° 0 mm 1 m/s 752 mmHg 70%
15:00 +30°C° 0 mm 1 m/s 752 mmHg 73%
16:00 +30°C° 0 mm 1 m/s 751 mmHg 76%
17:00 +29°C° 0 mm 1 m/s 751 mmHg 78%
18:00 +28°C° 0 mm 1 m/s 752 mmHg 81%
19:00 +28°C° 0 mm 1 m/s 752 mmHg 84%
20:00 +28°C° 0 mm 1 m/s 752 mmHg 85%
21:00 +27°C° 0 mm 1 m/s 753 mmHg 86%
22:00 +27°C° 0 mm 1 m/s 753 mmHg 87%
23:00 +27°C° 0.3 mm 1 m/s 753 mmHg 88%

Amanhã, 19 Abril, Segunda-feira

Tempo Temperatura Precipitação Vento Pressão Humidade
00:00 +26°C° 0.3 mm 1 m/s 753 mmHg 90%
01:00 +26°C° 0.3 mm 1 m/s 753 mmHg 91%
02:00 +26°C° 0.5 mm 1 m/s 753 mmHg 91%
03:00 +25°C° 0.5 mm 1 m/s 753 mmHg 92%
04:00 +25°C° 0.5 mm 1 m/s 753 mmHg 92%
05:00 +25°C° 0 mm 1 m/s 753 mmHg 92%
06:00 +25°C° 0 mm 1 m/s 753 mmHg 91%
07:00 +26°C° 0 mm 1 m/s 753 mmHg 91%
08:00 +27°C° 0 mm 2 m/s 754 mmHg 83%
09:00 +29°C° 0 mm 2 m/s 754 mmHg 76%
10:00 +31°C° 0 mm 3 m/s 754 mmHg 69%
11:00 +33°C° 0 mm 3 m/s 754 mmHg 63%
12:00 +34°C° 0 mm 4 m/s 753 mmHg 57%
13:00 +36°C° 0 mm 4 m/s 753 mmHg 51%
14:00 +36°C° 0 mm 4 m/s 752 mmHg 51%
15:00 +36°C° 0 mm 3 m/s 751 mmHg 51%
16:00 +35°C° 0 mm 3 m/s 751 mmHg 51%
17:00 +34°C° 0 mm 3 m/s 751 mmHg 59%
18:00 +31°C° 0 mm 3 m/s 752 mmHg 67%
19:00 +29°C° 0 mm 3 m/s 752 mmHg 76%
20:00 +29°C° 0 mm 3 m/s 752 mmHg 79%
21:00 +28°C° 0 mm 2 m/s 753 mmHg 83%
22:00 +28°C° 0 mm 2 m/s 753 mmHg 86%
23:00 +28°C° 0 mm 2 m/s 753 mmHg 87%

Depois de amanhã, 20 Abril, Terça-feira

Tempo Temperatura Precipitação Vento Pressão Humidade
00:00 +27°C° 0 mm 2 m/s 752 mmHg 88%
01:00 +27°C° 0 mm 1 m/s 752 mmHg 89%
02:00 +27°C° 0 mm 1 m/s 752 mmHg 90%
03:00 +27°C° 0 mm 1 m/s 752 mmHg 90%
04:00 +27°C° 0 mm 1 m/s 752 mmHg 91%
05:00 +27°C° 0 mm 1 m/s 752 mmHg 90%
06:00 +25°C° 0 mm 0 m/s 752 mmHg 89%
07:00 +25°C° 0 mm 0 m/s 753 mmHg 88%
08:00 +27°C° 0 mm 0 m/s 753 mmHg 78%
09:00 +31°C° 0 mm 1 m/s 753 mmHg 69%
10:00 +33°C° 0 mm 1 m/s 753 mmHg 60%
11:00 +34°C° 0 mm 1 m/s 753 mmHg 57%
12:00 +34°C° 0 mm 1 m/s 752 mmHg 54%
13:00 +35°C° 0 mm 1 m/s 752 mmHg 51%
14:00 +36°C° 0 mm 2 m/s 751 mmHg 52%
15:00 +35°C° 0 mm 2 m/s 751 mmHg 54%
16:00 +35°C° 0 mm 3 m/s 750 mmHg 55%
17:00 +34°C° 0 mm 3 m/s 750 mmHg 61%
18:00 +31°C° 0 mm 3 m/s 751 mmHg 67%
19:00 +30°C° 0 mm 3 m/s 751 mmHg 74%
20:00 +29°C° 0 mm 2 m/s 752 mmHg 77%
21:00 +29°C° 0 mm 2 m/s 752 mmHg 81%
22:00 +28°C° 0 mm 2 m/s 753 mmHg 85%
23:00 +28°C° 0.1 mm 1 m/s 752 mmHg 87%

21 Abril, Quarta-feira

Tempo Temperatura Precipitação Vento Pressão Humidade
00:00 +28°C° 0.1 mm 1 m/s 752 mmHg 88%
01:00 +27°C° 0.1 mm 1 m/s 752 mmHg 90%
02:00 +27°C° 1.1 mm 1 m/s 752 mmHg 91%
03:00 +27°C° 1.1 mm 1 m/s 752 mmHg 92%
04:00 +27°C° 1.1 mm 1 m/s 752 mmHg 92%
05:00 +27°C° 0 mm 1 m/s 752 mmHg 92%
06:00 +25°C° 0 mm 0 m/s 752 mmHg 91%
07:00 +25°C° 0 mm 0 m/s 753 mmHg 91%
08:00 +26°C° 0 mm 0 m/s 753 mmHg 89%
09:00 +26°C° 0 mm 0 m/s 754 mmHg 87%
10:00 +27°C° 0 mm 0 m/s 754 mmHg 85%
11:00 +28°C° 0 mm 0 m/s 753 mmHg 79%
12:00 +31°C° 0 mm 1 m/s 753 mmHg 74%
13:00 +32°C° 0 mm 1 m/s 752 mmHg 69%
14:00 +32°C° 0.1 mm 1 m/s 752 mmHg 68%
15:00 +32°C° 0.1 mm 2 m/s 751 mmHg 67%
16:00 +32°C° 0.1 mm 2 m/s 751 mmHg 67%
17:00 +31°C° 0 mm 2 m/s 751 mmHg 73%
18:00 +30°C° 0 mm 2 m/s 751 mmHg 79%
19:00 +29°C° 0 mm 2 m/s 751 mmHg 85%
20:00 +28°C° 0 mm 2 m/s 751 mmHg 86%
21:00 +28°C° 0 mm 2 m/s 752 mmHg 88%
22:00 +27°C° 0 mm 1 m/s 752 mmHg 90%
23:00 +27°C° 0 mm 1 m/s 752 mmHg 90%

22 Abril, Quinta-feira

Tempo Temperatura Precipitação Vento Pressão Humidade
00:00 +27°C° 0 mm 1 m/s 752 mmHg 90%
01:00 +27°C° 0 mm 1 m/s 753 mmHg 90%
02:00 +27°C° 0 mm 1 m/s 752 mmHg 91%
03:00 +27°C° 0 mm 1 m/s 752 mmHg 91%
04:00 +27°C° 0 mm 1 m/s 752 mmHg 92%
05:00 +27°C° 0 mm 1 m/s 752 mmHg 91%
06:00 +27°C° 0 mm 1 m/s 752 mmHg 91%
07:00 +27°C° 0 mm 1 m/s 753 mmHg 90%
08:00 +29°C° 0.1 mm 1 m/s 753 mmHg 81%
09:00 +31°C° 0.1 mm 1 m/s 754 mmHg 72%
10:00 +34°C° 0.1 mm 2 m/s 754 mmHg 63%
11:00 +34°C° 0.2 mm 2 m/s 754 mmHg 60%
12:00 +35°C° 0.2 mm 2 m/s 753 mmHg 57%
13:00 +36°C° 0.2 mm 2 m/s 753 mmHg 54%
14:00 +35°C° 0.4 mm 2 m/s 752 mmHg 57%
15:00 +34°C° 0.4 mm 3 m/s 751 mmHg 60%
16:00 +34°C° 0.4 mm 3 m/s 751 mmHg 63%
17:00 +31°C° 0.3 mm 3 m/s 751 mmHg 68%
18:00 +30°C° 0.3 mm 3 m/s 751 mmHg 73%
19:00 +29°C° 0.3 mm 3 m/s 752 mmHg 78%
20:00 +29°C° 0 mm 2 m/s 752 mmHg 81%
21:00 +28°C° 0 mm 2 m/s 752 mmHg 84%
22:00 +28°C° 0 mm 1 m/s 753 mmHg 87%
23:00 +28°C° 0 mm 1 m/s 753 mmHg 89%

23 Abril, Sexta-feira

Tempo Temperatura Precipitação Vento Pressão Humidade
00:00 +27°C° 0 mm 1 m/s 752 mmHg 90%
01:00 +27°C° 0 mm 1 m/s 752 mmHg 91%
02:00 +27°C° 0 mm 1 m/s 752 mmHg 91%
03:00 +27°C° 0 mm 1 m/s 752 mmHg 92%
04:00 +27°C° 0 mm 1 m/s 751 mmHg 92%
05:00 +27°C° 0 mm 1 m/s 752 mmHg 91%
06:00 +27°C° 0 mm 1 m/s 752 mmHg 90%
07:00 +27°C° 0 mm 1 m/s 752 mmHg 90%
08:00 +29°C° 0 mm 1 m/s 753 mmHg 81%
09:00 +31°C° 0 mm 1 m/s 753 mmHg 73%
10:00 +32°C° 0 mm 2 m/s 753 mmHg 65%
11:00 +34°C° 0.1 mm 2 m/s 753 mmHg 61%
12:00 +35°C° 0.1 mm 2 m/s 752 mmHg 57%
13:00 +36°C° 0.1 mm 3 m/s 751 mmHg 54%
14:00 +35°C° 0.4 mm 3 m/s 751 mmHg 56%
15:00 +35°C° 0.4 mm 3 m/s 751 mmHg 59%
16:00 +34°C° 0.4 mm 3 m/s 750 mmHg 62%
17:00 +33°C° 0.7 mm 3 m/s 751 mmHg 68%
18:00 +30°C° 0.7 mm 3 m/s 751 mmHg 74%
19:00 +29°C° 0.7 mm 2 m/s 752 mmHg 80%
20:00 +29°C° 0.5 mm 2 m/s 752 mmHg 83%
21:00 +28°C° 0.5 mm 2 m/s 752 mmHg 85%
22:00 +28°C° 0.5 mm 2 m/s 752 mmHg 88%
23:00 +27°C° 0.6 mm 2 m/s 752 mmHg 89%
Mostrar mais

Necessitamos do seu Consentimento

A Meteoprog e os seus Fornecedores de Serviços podem armazenar e aceder a dados pessoais como cookies, identificadores do dispositivo ou outras tecnologias semelhantes existentes no seu dispositivo e processar estes dados para personalizar conteúdos e anúncios, assim como funcionalidades nas redes sociais e análise de tráfego.

  • Armazenar e/ou aceder a informações no seu dispositivo

    Os cookies, identificadores do dispositivo ou outras informações podem ser armazenados ou acedidos no seu dispositivo, para os fins acima indicados.

  • Anúncios e conteúdos personalizados, medição de anúncios e conteúdos, dados sobre o público-alvo e desenvolvimento de produtos

    Os anúncios e os conteúdos podem ser personalizados com base num perfil. Podem ser adicionados dados adicionais para uma maior personalização dos anúncios e dos conteúdos. A eficácia dos anúncios e dos conteúdos pode ser medida. Podem ser obtidas informações sobre o público que visualizou os anúncios e os conteúdos. Estes dados podem ser usados para desenvolver ou melhorar sistemas, softwares ou a experiência do utilizador.

Ao clicar em "Eu concordo”, permitirá o uso de cookies, identificadores do dispositivo e web beacons mencionados ou outras tecnologias semelhantes. As configurações do navegador do seu dispositivo podem ser alteradas.

Para certos fins, podem ser invocados interesses legítimos ao invés de consentimento. Pode ler mais informação sobre este assunto na nossa Política de Privacidade e Cookies.